When you browse on this site, cookies collect data to enhance your experience and personalize the content and advertising you see.
Visit our Privacy Policy to learn more. By continuing to use the site, you agree to this use of cookies and data.
  • Em Portugal
  • Lista de países
  • Para 7 dias
  • Temperatura da água
  • Mapa do tempo
  • Widgets de tempo
  • user-avatar
    Iniciar Sessão

    Previsão horária em Al-Budajji

    Hoje, 10 Dezembro, Terça-feira

    Tempo Temperatura Precipitação Vento Pressão Humidade
    00:00 +26°C° 0.4 mm 6 m/s 764 mmHg 78%
    01:00 +26°C° 0.4 mm 6 m/s 765 mmHg 79%
    02:00 +24°C° 1.2 mm 6 m/s 764 mmHg 79%
    03:00 +24°C° 1.2 mm 6 m/s 764 mmHg 79%
    04:00 +24°C° 0 mm 6 m/s 764 mmHg 81%
    05:00 +25°C° 2 mm 5 m/s 764 mmHg 81%
    06:00 +25°C° 2 mm 4 m/s 765 mmHg 81%
    07:00 +25°C° 2 mm 4 m/s 765 mmHg 80%
    08:00 +25°C° 1.8 mm 4 m/s 765 mmHg 80%
    09:00 +25°C° 1.8 mm 4 m/s 765 mmHg 80%
    10:00 +26°C° 0 mm 5 m/s 765 mmHg 81%
    11:00 +26°C° 0.9 mm 4 m/s 765 mmHg 80%
    12:00 +26°C° 0.9 mm 4 m/s 765 mmHg 79%
    13:00 +27°C° 0.9 mm 4 m/s 764 mmHg 78%
    14:00 +27°C° 1.1 mm 4 m/s 764 mmHg 76%
    15:00 +27°C° 1.1 mm 3 m/s 763 mmHg 74%
    16:00 +27°C° 0 mm 6 m/s 762 mmHg 72%
    17:00 +27°C° 0.6 mm 6 m/s 762 mmHg 73%
    18:00 +27°C° 0.6 mm 5 m/s 763 mmHg 75%
    19:00 +27°C° 0.6 mm 5 m/s 763 mmHg 76%
    20:00 +27°C° 0.6 mm 5 m/s 763 mmHg 77%
    21:00 +27°C° 0.6 mm 5 m/s 763 mmHg 78%
    22:00 +27°C° 0.6 mm 5 m/s 762 mmHg 78%
    23:00 +27°C° 0.5 mm 5 m/s 762 mmHg 78%

    Amanhã, 11 Dezembro, Quarta-feira

    Tempo Temperatura Precipitação Vento Pressão Humidade
    00:00 +26°C° 0.5 mm 4 m/s 762 mmHg 78%
    01:00 +26°C° 0.5 mm 4 m/s 762 mmHg 78%
    02:00 +26°C° 0.3 mm 4 m/s 762 mmHg 77%
    03:00 +27°C° 0.3 mm 3 m/s 762 mmHg 76%
    04:00 +27°C° 0.3 mm 3 m/s 762 mmHg 75%
    05:00 +27°C° 0.4 mm 3 m/s 762 mmHg 74%
    06:00 +27°C° 0.4 mm 2 m/s 762 mmHg 74%
    07:00 +27°C° 0.4 mm 2 m/s 763 mmHg 74%
    08:00 +27°C° 1.1 mm 3 m/s 763 mmHg 74%
    09:00 +27°C° 1.1 mm 4 m/s 763 mmHg 74%
    10:00 +27°C° 1.1 mm 5 m/s 764 mmHg 74%
    11:00 +27°C° 0.1 mm 6 m/s 763 mmHg 75%
    12:00 +26°C° 0.1 mm 7 m/s 763 mmHg 76%
    13:00 +26°C° 0.1 mm 7 m/s 763 mmHg 78%
    14:00 +26°C° 0 mm 8 m/s 762 mmHg 78%
    15:00 +26°C° 0 mm 8 m/s 762 mmHg 79%
    16:00 +24°C° 0 mm 8 m/s 762 mmHg 80%
    17:00 +24°C° 0 mm 8 m/s 762 mmHg 79%
    18:00 +24°C° 0 mm 8 m/s 762 mmHg 78%
    19:00 +24°C° 0 mm 9 m/s 762 mmHg 77%
    20:00 +24°C° 0 mm 9 m/s 762 mmHg 76%
    21:00 +24°C° 0 mm 9 m/s 762 mmHg 75%
    22:00 +24°C° 0 mm 9 m/s 762 mmHg 73%
    23:00 +24°C° 0 mm 9 m/s 763 mmHg 71%

    Depois de amanhã, 12 Dezembro, Quinta-feira

    Tempo Temperatura Precipitação Vento Pressão Humidade
    00:00 +24°C° 0 mm 9 m/s 763 mmHg 69%
    01:00 +24°C° 0 mm 10 m/s 763 mmHg 66%
    02:00 +24°C° 0 mm 10 m/s 762 mmHg 66%
    03:00 +24°C° 0 mm 10 m/s 762 mmHg 65%
    04:00 +24°C° 0 mm 10 m/s 762 mmHg 65%
    05:00 +24°C° 0 mm 10 m/s 762 mmHg 65%
    06:00 +24°C° 0 mm 10 m/s 763 mmHg 65%
    07:00 +24°C° 0 mm 10 m/s 763 mmHg 65%
    08:00 +24°C° 0 mm 10 m/s 763 mmHg 64%
    09:00 +24°C° 0 mm 9 m/s 763 mmHg 64%
    10:00 +24°C° 0 mm 9 m/s 763 mmHg 64%
    11:00 +24°C° 0 mm 9 m/s 763 mmHg 64%
    12:00 +24°C° 0 mm 9 m/s 763 mmHg 65%
    13:00 +24°C° 0 mm 9 m/s 762 mmHg 66%
    14:00 +24°C° 0 mm 9 m/s 762 mmHg 66%
    15:00 +24°C° 0 mm 9 m/s 762 mmHg 65%
    16:00 +24°C° 0 mm 9 m/s 761 mmHg 65%
    17:00 +24°C° 0 mm 9 m/s 762 mmHg 65%
    18:00 +24°C° 0 mm 9 m/s 762 mmHg 64%
    19:00 +24°C° 0 mm 8 m/s 762 mmHg 64%
    20:00 +24°C° 0 mm 8 m/s 762 mmHg 64%
    21:00 +24°C° 0 mm 7 m/s 762 mmHg 64%
    22:00 +24°C° 0 mm 7 m/s 763 mmHg 63%
    23:00 +24°C° 0 mm 6 m/s 762 mmHg 61%

    13 Dezembro, Sexta-feira

    Tempo Temperatura Precipitação Vento Pressão Humidade
    00:00 +25°C° 0 mm 5 m/s 762 mmHg 58%
    01:00 +25°C° 0 mm 4 m/s 762 mmHg 55%
    02:00 +25°C° 0 mm 3 m/s 762 mmHg 54%
    03:00 +25°C° 0 mm 3 m/s 761 mmHg 53%
    04:00 +25°C° 0 mm 2 m/s 761 mmHg 52%
    05:00 +25°C° 0 mm 2 m/s 762 mmHg 51%
    06:00 +25°C° 0 mm 1 m/s 762 mmHg 50%
    07:00 +23°C° 0 mm 0 m/s 762 mmHg 50%
    08:00 +25°C° 0 mm 2 m/s 763 mmHg 51%
    09:00 +26°C° 0 mm 3 m/s 763 mmHg 53%
    10:00 +26°C° 0 mm 4 m/s 763 mmHg 54%
    11:00 +26°C° 0 mm 4 m/s 763 mmHg 54%
    12:00 +26°C° 0 mm 4 m/s 763 mmHg 54%
    13:00 +26°C° 0 mm 4 m/s 762 mmHg 54%
    14:00 +26°C° 0.1 mm 4 m/s 762 mmHg 55%
    15:00 +26°C° 0.1 mm 4 m/s 762 mmHg 55%
    16:00 +26°C° 0.1 mm 4 m/s 762 mmHg 56%
    17:00 +26°C° 0.1 mm 4 m/s 762 mmHg 57%
    18:00 +26°C° 0.1 mm 4 m/s 763 mmHg 58%
    19:00 +26°C° 0.1 mm 5 m/s 763 mmHg 58%
    20:00 +26°C° 0 mm 4 m/s 763 mmHg 59%
    21:00 +26°C° 0 mm 4 m/s 763 mmHg 60%
    22:00 +26°C° 0 mm 4 m/s 763 mmHg 61%
    23:00 +26°C° 0 mm 4 m/s 763 mmHg 62%

    14 Dezembro, Sábado

    Tempo Temperatura Precipitação Vento Pressão Humidade
    00:00 +26°C° 0 mm 4 m/s 763 mmHg 63%
    01:00 +26°C° 0 mm 4 m/s 763 mmHg 64%
    02:00 +26°C° 0 mm 3 m/s 763 mmHg 62%
    03:00 +26°C° 0 mm 3 m/s 763 mmHg 61%
    04:00 +26°C° 0 mm 2 m/s 763 mmHg 60%
    05:00 +26°C° 0 mm 2 m/s 763 mmHg 61%
    06:00 +26°C° 0 mm 2 m/s 764 mmHg 61%
    07:00 +26°C° 0 mm 2 m/s 764 mmHg 61%
    08:00 +26°C° 0 mm 2 m/s 765 mmHg 61%
    09:00 +26°C° 0 mm 2 m/s 765 mmHg 61%
    10:00 +27°C° 0 mm 2 m/s 766 mmHg 60%
    11:00 +27°C° 0 mm 2 m/s 765 mmHg 60%
    12:00 +27°C° 0 mm 2 m/s 765 mmHg 61%
    13:00 +27°C° 0 mm 2 m/s 764 mmHg 61%
    14:00 +26°C° 0 mm 2 m/s 764 mmHg 62%
    15:00 +26°C° 0 mm 2 m/s 764 mmHg 64%
    16:00 +26°C° 0 mm 2 m/s 764 mmHg 66%
    17:00 +26°C° 0 mm 2 m/s 764 mmHg 66%
    18:00 +26°C° 0 mm 2 m/s 764 mmHg 66%
    19:00 +26°C° 0 mm 2 m/s 764 mmHg 66%
    20:00 +26°C° 0 mm 2 m/s 765 mmHg 65%
    21:00 +26°C° 0 mm 2 m/s 765 mmHg 63%
    22:00 +26°C° 0 mm 1 m/s 765 mmHg 62%
    23:00 +26°C° 0 mm 2 m/s 765 mmHg 60%

    15 Dezembro, Domingo

    Tempo Temperatura Precipitação Vento Pressão Humidade
    00:00 +26°C° 0 mm 2 m/s 765 mmHg 59%
    01:00 +26°C° 0 mm 2 m/s 764 mmHg 58%
    02:00 +26°C° 0 mm 2 m/s 764 mmHg 58%
    03:00 +26°C° 0 mm 3 m/s 764 mmHg 58%
    04:00 +26°C° 0 mm 3 m/s 764 mmHg 59%
    05:00 +26°C° 0 mm 3 m/s 764 mmHg 58%
    06:00 +26°C° 0 mm 3 m/s 764 mmHg 58%
    07:00 +26°C° 0 mm 3 m/s 765 mmHg 58%
    08:00 +26°C° 0 mm 2 m/s 765 mmHg 58%
    09:00 +26°C° 0 mm 2 m/s 765 mmHg 58%
    10:00 +26°C° 0 mm 2 m/s 765 mmHg 58%
    11:00 +26°C° 0.1 mm 2 m/s 765 mmHg 59%
    12:00 +26°C° 0.1 mm 2 m/s 765 mmHg 60%
    13:00 +26°C° 0.1 mm 2 m/s 764 mmHg 61%
    14:00 +25°C° 0.2 mm 2 m/s 764 mmHg 63%
    15:00 +25°C° 0.2 mm 2 m/s 764 mmHg 65%
    16:00 +24°C° 0.2 mm 3 m/s 764 mmHg 67%
    17:00 +24°C° 0.3 mm 3 m/s 765 mmHg 70%
    18:00 +24°C° 0.3 mm 3 m/s 765 mmHg 72%
    19:00 +23°C° 0.3 mm 4 m/s 765 mmHg 74%
    20:00 +23°C° 0.2 mm 4 m/s 765 mmHg 76%
    21:00 +23°C° 0.2 mm 4 m/s 766 mmHg 77%
    22:00 +23°C° 0.2 mm 4 m/s 766 mmHg 78%
    23:00 +24°C° 0.2 mm 3 m/s 765 mmHg 78%
    Mostrar mais